View from above orbital plane
|
View from above satellite
|
Ground track
|
The orbit data is extracted from the following two-line orbital elements,
1 38341U 12025E 21104.48268427 .00000111 00000-0 20620-4 0 9995
2 38341 98.5264 285.5940 0055041 346.2674 13.7037 14.84202429482017
Epoch (UTC): | 14 April 2021 11:35:03 |
Eccentricity: | 0.0055041 |
inclination: | 98.5264° |
perigee height: | 577 km |
apogee height: | 654 km |
right ascension of ascending node: | 285.5940° |
argument of perigee: | 346.2674° |
revolutions per day: | 14.84202429 |
mean anomaly at epoch: | 13.7037° |
orbit number at epoch: | 48201 |
The dashed part of the orbit path shows where the satellite is in the earth's shadow,
|
|